< < Back
Terminal Aerodrome Forecast


Current Version              Previous Versions:   1  2  3  4  5  6  7  8  9  

Terminal Aerodrome Forecast

757
FTUS44 KMRX 290524
TAFCHA
TAF
KCHA 290524Z 2906/3006 VRB03KT P6SM SKC
     FM291800 04006KT P6SM BKN250
     FM300200 VRB03KT P6SM BKN120 BKN250=



Latest METAR

681
SAUS80 KWBC 300300 RRA
MTRCHA
METAR KCHA 300253Z 06003KT 10SM BKN250 23/13 A3000 RMK AO2 SLP152
T02280133 52007


USA.gov is the U.S. government's official web portal to all federal, state and local government web resources and services.